GW0118 Weather Reports


time (UTC)temp
F
wind
direction
speed
knots
gust
knots
rain 1hr
in
rain 24hr
in
rain mn
in
humidity
%
barometer
mb
20260506084635 48 63 4.3 10.4 0.00 0.07 0.00 67 1013.9
20260506083111 48 44 5.2 9.6 0.00 0.07 0.00 67 1013.8
20260506081602 47 49 4.3 9.6 0.00 0.07 0.00 71 1014.0
20260506080105 46 46 3.5 9.6 0.00 0.07 0.00 72 1013.9
20260506073100 45 39 5.2 10.4 0.00 0.07 0.00 76 1013.7
20260506071600 44 63 5.2 9.6 0.00 0.07 0.00 81 1013.7
20260506061559 39 116 0.9 2.6 0.00 0.07 0.00 86 1013.6
20260506044559 36 65 1.7 3.5 0.00 0.07 0.00 91 1013.0
20260506043058 35 104 0.9 1.7 0.00 0.07 0.00 91 1012.9
20260506041608 35 0 0.0 1.7 0.00 0.07 0.00 92 1013.0
20260506040100 35 62 0.9 3.5 0.00 0.07 0.00 91 1013.1
20260506034559 36 95 0.9 4.3 0.00 0.07 0.00 91 1013.2
20260506033101 36 0 0.0 1.7 0.00 0.07 0.00 91 1013.1
20260506031558 36 0 0.9 3.5 0.00 0.07 0.00 91 1013.1
20260506030059 36 52 0.0 2.6 0.00 0.07 0.00 91 1013.3
20260506024602 36 69 0.0 1.7 0.00 0.07 0.00 90 1013.3
20260506023109 37 48 0.0 1.7 0.00 0.07 0.00 90 1013.4
20260506021617 37 127 0.9 1.7 0.00 0.07 0.00 90 1013.4
20260506020055 37 0 0.0 0.9 0.00 0.07 0.00 90 1013.5
20260506014557 37 0 0.0 0.9 0.00 0.07 0.00 90 1013.5
20260506013108 38 120 0.0 0.9 0.00 0.07 0.00 89 1013.6
20260506011616 38 0 0.0 0.0 0.00 0.07 0.00 88 1013.6
20260506010059 39 0 0.0 1.7 0.00 0.07 0.00 88 1013.7
20260506004558 39 0 0.0 2.6 0.00 0.07 0.00 88 1013.8
20260506003057 38 47 0.0 1.7 0.00 0.07 0.00 87 1013.7
20260506001559 39 113 0.0 0.9 0.00 0.07 0.00 86 1013.9
20260506000100 40 48 0.9 2.6 0.00 0.07 0.00 85 1013.7
20260505234559 40 106 0.9 3.5 0.00 0.07 0.00 85 1013.8
20260505233105 40 131 1.7 4.3 0.00 0.07 0.00 85 1013.9
20260505231611 40 56 2.6 7.0 0.00 0.07 0.00 85 1014.1
20260505230058 41 58 3.5 6.1 0.00 0.07 0.00 83 1014.1
20260505224603 42 101 0.9 4.3 0.00 0.07 0.00 81 1014.2
20260505223101 43 52 2.6 4.3 0.00 0.07 0.00 80 1014.1
20260505221604 42 55 1.7 4.3 0.00 0.07 0.00 81 1014.2
20260505214601 44 42 3.5 7.0 0.00 0.07 0.07 78 1014.3
20260505213059 44 54 4.3 7.8 0.00 0.07 0.07 77 1014.3
20260505211559 45 43 1.7 6.1 0.00 0.07 0.07 76 1014.4
20260505210059 45 50 5.2 10.4 0.00 0.07 0.07 75 1014.2
20260505204600 46 319 1.7 5.2 0.00 0.07 0.07 74 1014.1
20260505203121 47 352 4.3 7.8 0.00 0.07 0.07 72 1013.9
20260505201605 48 333 7.0 11.3 0.00 0.07 0.07 69 1013.6
20260505194600 50 336 2.6 7.0 0.00 0.07 0.07 65 1013.3
20260505193109 51 293 4.3 8.7 0.00 0.07 0.07 63 1013.0
20260505191612 51 354 2.6 10.4 0.00 0.07 0.07 63 1012.9
20260505190100 51 295 4.3 7.8 0.00 0.07 0.07 63 1012.7
20260505184602 52 349 4.3 7.8 0.00 0.07 0.07 64 1012.6
20260505181559 52 68 0.9 2.6 0.00 0.07 0.07 70 1012.4
20260505180103 50 115 1.7 4.3 0.00 0.07 0.07 72 1012.3
20260505174606 50 56 1.7 5.2 0.00 0.07 0.07 74 1012.3
20260505173101 50 94 1.7 4.3 0.00 0.07 0.07 72 1012.3
20260505171601 51 75 2.6 4.3 0.00 0.06 0.06 70 1012.2
20260505170111 51 41 4.3 9.6 0.00 0.06 0.06 65 1012.1
20260505164559 51 53 6.1 12.2 0.00 0.06 0.06 64 1012.3
20260505163103 51 349 7.0 12.2 0.00 0.06 0.06 65 1012.3
20260505161616 52 336 6.1 13.9 0.00 0.06 0.06 61 1012.3
20260505153108 54 1 2.6 6.1 0.00 0.06 0.06 60 1012.3
20260505150105 54 358 6.1 12.2 0.00 0.06 0.06 63 1012.5
20260505140114 51 49 6.1 10.4 0.05 0.06 0.06 73 1012.9
20260505130111 51 179 9.6 14.8 0.00 0.00 0.00 62 1012.6
20260505124611 51 57 4.3 8.7 0.00 0.00 0.00 72 1012.8
20260505123108 51 290 5.2 11.3 0.00 0.00 0.00 67 1012.9
20260505121631 53 38 5.2 13.9 0.00 0.00 0.00 65 1012.8
20260505120112 53 37 4.3 16.5 0.00 0.00 0.00 66 1012.9
20260505114600 55 197 1.7 10.4 0.00 0.00 0.00 56 1012.9
20260505113112 54 224 0.0 4.3 0.00 0.00 0.00 64 1013.1
20260505111608 52 30 1.7 4.3 0.00 0.00 0.00 67 1013.3
20260505110107 50 0 0.9 1.7 0.00 0.00 0.00 70 1013.4
20260505101601 49 275 3.5 7.0 0.00 0.00 0.00 68 1013.9
20260505094600 50 354 1.7 7.0 0.00 0.00 0.00 66 1013.7
20260505093059 50 339 2.6 4.3 0.00 0.00 0.00 66 1013.6
20260505091600 49 269 1.7 5.2 0.00 0.00 0.00 68 1013.8
20260505090107 49 255 3.5 6.1 0.00 0.00 0.00 70 1013.8